321  
ASUS41 KAKQ 210811  
RWRAKQ  
 
REGIONAL WEATHER ROUNDUP  
NATIONAL WEATHER SERVICE WAKEFIELD VA  
400 AM EDT FRI JUN 21 2024  
 
NOTE: "FAIR" INDICATES FEW OR NO CLOUDS BELOW 12,000 FEET WITH NO  
SIGNIFICANT WEATHER AND/OR S TO VISIBILITY
. * = DENOTES  
STATION MAY NOT REPORT PRECIPITATION (E.G., RAIN,SNOW,ETC.),
 
THUNDER OR FOG.  
 
VAZ042-051-052>054-056-210900-  
NORTHERN VIRGINIA  
 
CITY SKY/WX TMP DP RH WIND PRES REMARKS
 
WASH NATIONAL PTCLDY 74 66 76 S7 30.23F  
DULLES PTCLDY 71 65 81 S3 30.24F  
FORT BELVOIR CLEAR 68 66 95 CALM 30.22S  
QUANTICO CLEAR 74 66 76 VRB3 N/A  
FREDERICKSBRG* CLEAR 70 70 100 CALM 30.23S  
STAFFORD* CLEAR 68 62 82 CALM 30.25S  
WARRENTON CLEAR 65 62 91 CALM 30.24S  
CULPEPER* CLEAR 65 64 95 CALM 30.25S  
MANASSAS* CLEAR 67 65 93 CALM 30.24F  
LEESBURG* CLEAR 70 68 94 CALM 30.25F  
WINCHESTER CLEAR 64 63 94 CALM 30.23F  
FRONT ROYAL* CLEAR 68 63 83 CALM 30.24S  
LURAY* N/A 64 64 100 CALM 30.26S  

 
 
VAZ048-049-060>072-079>083-210900-  
CENTRAL AND SOUTH CENTRAL VIRGINIA  
 
CITY SKY/WX TMP DP RH WIND PRES REMARKS
 
RICHMOND PTCLDY 70 64 81 S3 30.25S  
CHESTERFIELD* CLEAR 67 67 100 S3 30.26S  
PETERSBURG* CLEAR 66 64 94 CALM 30.27R  
HANOVER CLEAR 71 65 81 S6 30.26S  
TAPPAHANNOCK* CLEAR 67 67 100 CALM 30.26S  
QUINTON* CLEAR 67 64 91 CALM 30.26S  
CHARLOTTSVILLE CLEAR 70 65 84 W5 30.25S  
GORDONSVILLE* CLEAR 65 64 94 CALM 30.24F  
ORANGE* CLEAR 63 63 100 CALM 30.26S  
LOUISA* CLEAR 68 64 86 S6 30.26S  
BUMPASS* CLEAR 67 65 93 CALM 30.25S  
FARMVILLE* NOT AVBL  
CREWE* CLEAR 63 61 91 CALM 30.27S  
FORT PICKETT* CLEAR 69 65 86 S5 30.26R  
CHASE CITY* CLEAR 66 65 99 CALM 30.28R  
CLARKSVILLE* CLEAR 68 63 83 CALM 30.27S  
SOUTH HILL* CLEAR 69 65 89 S3 30.33R  
LAWRENCEVILLE* CLEAR 68 64 87 CALM 30.27F  
EMPORIA* FOG 61 61 99 CALM 30.28S VSB 1/2  

 
 
VAZ088>098-210900-  
SOUTHEAST VIRGINIA  
 
CITY SKY/WX TMP DP RH WIND PRES REMARKS
 
NORFOLK CLEAR 71 67 87 S5 30.25S  
VIRGINIA BEACH CLEAR 67 67 100 CALM 30.25S  
NORFOLK NAVAL PTCLDY 73 67 81 S5 30.26S  
WEST POINT* CLEAR 71 67 88 CALM 30.26S  
SALUDA* CLEAR 68 65 90 CALM 30.25S  
NEWPORT NEWS CLEAR 69 65 86 SW3 30.26S  
LANGLEY AFB CLEAR 74 68 81 SW3 30.24S  
FORT EUSTIS CLEAR 74 68 82 S5 30.23S  
WILLIAMSBURG* NOT AVBL  
HR EXEC AP* CLEAR 63 62 97 MISG 30.27S  
FRANKLIN* CLEAR 63 61 93 CALM 30.27S  
US460-WAKEFLD CLEAR 65 62 90 CALM 30.26S  

 
 
VAZ020-022-025-037-045-210900-  
WEST CENTRAL AND SOUTHWEST VIRGINIA  
 
CITY SKY/WX TMP DP RH WIND PRES REMARKS
 
STAUNTON* CLEAR 64 62 94 CALM 30.30R  
WAYNESBORO* CLEAR 65 62 90 CALM 30.29S  
HOT SPRINGS VA N/A 68 62 80 W8 30.41S  
LYNCHBURG CLEAR 65 62 90 CALM 30.27F  
DANVILLE PTCLDY 64 62 93 CALM 30.27R  
SOUTH BOSTON* CLEAR 66 61 84 CALM 30.27R  
MARTINSVILLE CLEAR 61 59 91 CALM 30.31R FOG  
ROANOKE CLEAR 68 62 81 CALM 30.30S  
BLACKSBURG CLEAR 64 64 100 CALM 30.36S  
DUBLIN* CLEAR 61 60 96 CALM 30.33S  
MARION* CLEAR 58 58 100 CALM 30.38S  
HILLSVILLE* CLEAR 66 58 75 S3 30.35F  
RICHLANDS* CLEAR N/A N/A N/A CALM 30.35S  
WISE* CLEAR 63 61 94 SW5 30.36S  
ABINGDON* CLEAR 67 61 81 E3 30.32F  

 
 
MDZ021>025-VAZ099-100-210900-  
SOUTHERN MARYLAND AND THE DELMARVA PENINSULA  
 
CITY SKY/WX TMP DP RH WIND PRES REMARKS
 
PATUXENT RIVER N/A 73 66 78 CALM 30.24S  
BAY BRIDGE APT CLEAR 74 73 99 S5 30.24S  
LEONARDTOWN CLEAR 68 64 88 CALM 30.26S  
DOVER CLEAR 71 66 85 SW6 30.22S  
GEORGETOWN CLEAR 67 67 100 SW6 30.24F  
EASTON CLEAR 70 68 94 S3 30.24S  
CAMBRIDGE PTCLDY 70 70 100 CALM 30.24S  
SALISBURY CLEAR 64 61 90 CALM 30.25F  
TANGIER CLEAR 76 71 84 S8 30.25S  
OCEAN CITY CLEAR 65 63 93 SW3 30.25  
WALLOPS ISLAND CLEAR 71 69 93 SW5 30.26F  
ACCOMACK* CLEAR N/A N/A N/A S3 30.26S  

 
 
NCZ012>017-030>032-210900-  
NORTH CENTRAL AND EASTERN NORTH CAROLINA  
 
CITY SKY/WX TMP DP RH WIND PRES REMARKS
 
ROANOKE RAPIDS CLEAR 61 61 100 CALM 30.27S  
RALEIGH PTCLDY 72 63 73 S5 30.27S  
ELIZABETH CITY CLEAR 70 67 90 S3 30.26S  
AHOSKIE* CLEAR 61 61 100 CALM 30.27R  
EDENTON* CLEAR 75 74 99 S3 30.27S  
CURRITUCK* CLEAR 68 66 91 CALM 30.26S  
KILL DEVIL HLS CLEAR 72 67 87 SE3 30.25S  
MANTEO CLEAR 73 65 77 S5 30.27S  
CAPE HATTERAS CLEAR 76 68 76 SE8 30.26R  
TARBORO* CLEAR 64 64 99 CALM 30.27R FOG  
GOLDSBORO CLEAR 67 64 89 CALM 30.23S  
WASHINGTON CLEAR 65 63 92 CALM 30.27S  
GREENVILLE CLEAR 66 66 100 CALM 30.26S  
NEW BERN CLEAR 67 66 97 CALM 30.26S  
WILMINGTON CLEAR 67 63 87 CALM 30.22F  

 
 
VAZ048-210900-  
ELSEWHERE  
 
CITY SKY/WX TMP DP RH WIND PRES REMARKS
 
HARRISBURG PA CLEAR 76 65 68 S3 30.22F  
BALTIMORE PTCLDY 71 65 81 CALM 30.23F  
ANNAPOLIS CLEAR 72 66 81 CALM 30.24S  
ANDREWS AFB CLEAR 69 64 86 S6 30.22S  
PHILADELPHIA PTCLDY 74 67 78 SW8 30.23S  
GREENSBORO PTCLDY 68 62 81 S6 30.27S  
ROCKY MOUNT CLEAR 66 66 100 CALM 30.27S  

 
 
VAZ100-210900-  
MARINE  
 
STATION/POSITION TIME TEMP WIND PRES WAVE SWELL
 
AIR SEA DIR/SP/G HT/PER HT/PER  
(UTC) (F) (DEG/KT/KT) (MB) (FT/S) (FT/S)  
CAPE MAY NJ 0724 71 69 210/ 5/ 7 1024.1  
LEWES DE 0724 71 63 220/ 6/ 8 1024.3  
15NM E FENWICK I 0750 74 73 220/ 8/ 10 1023.9F 3/ 8 3/ 8  
OCEAN-CITY-INLET 0724 70 68 230/ 7/ 8 1022.8  
44089 WALLOPS IS 0756 75 N/A 3/ 8  
WACHAPREAGUE VA 0724 73 81 280/ 2/ 3 1024.1  
THOMAS POINT MD 0800 74 180/ 10/ 11 1024.9F  
GOOSES REEF MD 0748 71 78 210/ 10/ 12 N/A 1  
COVE POINT MD 0724 73 190/ 5/ 7 1024.1  
SOLOMONS ISLAND 0724 73 78 220/ 2/ 4 1023.9  
BISHOPS HEAD MD 0724 77 80 190/ 7/ 12 1024.5  
PINEY POINT MD 0730 200/ 5/ 7 N/A  
POTOMAC MD 0748 72 78 210/ 10/ 14 N/A 1/ 2  
CAMBRIDGE MD 0724 73 79 200/ 3/ 5 1024.4  
LEWISETTA VA 0730 72 81 220/ 9/ 10 1024.1F  
RAPPAHANNOCK LGT 0730 190/ 12/ 13 1025.9S  
STINGRAY PT 0748 74 79 210/ 4/ 6 N/A 2/11  
YORKTOWN VA 0730 72 78 200/ 2/ 3 1024.4F  
JAMESTOWN VA 0748 70 82 190/ 2/ 4 N/A  
DOMINION TERM VA 0730 74 190/ 6/ 8 1024.6S  
KIPTOPEKE VA 0730 74 76 210/ 5/ 6 1025.5R  
CHES BAY BRIDGE 0730 74 200/ 6/ 8 1023.5R  
CAPE HENRY VA 0730 72 180/ 5/ 7 1024.4F  
WILLOUBY STN VA 0730 74 220/ 4/ 8 1024.1F  
S CRANEY ISL VA 0730 74 190/ 5/ 6 1024.3F  
CAPE HENRY BUOY 0756 76 N/A 3/ 8  
1ST LANDING BUOY 0748 71 75 200/ 6/ 6 N/A 2/ 9  
64NM E OF VA BCH 0750 76 75 160/ 6/ 8 1024.8F 4/ 9  
DUCK PIER NC 0730 76 150/ 9/ 10 1024.5F  
44100 DUCK FRF 0730 76 77 N/A 4/ 8 2/10  
44056 DUCK FRF 0756 75 N/A 3/ 9  
OREGON INLET NC 0730 74 76 160/ 4/ 6 1025.7F  
HATTERAS NC 0730 77 80 120/ 6/ 8 1025.1S  
DIAMOND SHLS NC 0750 79 110/ 8/ 12 1024.0F 5/ 8  
CAPE LOOKOUT NC 0700 77 100/ 12/ 13 1024.7F  

 
 
 
CLICK HERE TO GO TO PREVIOUS BULLETINS.

The Nexlab VA Page
The Nexlab NC Page
The Nexlab MD Page Main Text Page